Time,TemperatureF,DewpointF,PressureIn,WindDirection,WindDirectionDegrees,WindSpeedMPH,WindSpeedGustMPH,Humidity,HourlyPrecipIn,Conditions,Clouds,dailyrainin,SolarRadiationWatts/m^2,SoftwareType,DateUTC
2013-10-04 00:02:00,44.0,13.0,-100.00,East,96,1.0,10.0,28,0.00,,,0.00,0.000000,,2013-10-04 07:02:00,
2013-10-04 00:28:00,44.0,13.0,-100.00,East,96,1.0,10.0,28,0.00,,,0.00,0.000000,,2013-10-04 07:28:00,
2013-10-04 00:38:00,44.0,13.0,-100.00,East,96,1.0,10.0,28,0.00,,,0.00,0.000000,,2013-10-04 07:38:00,
2013-10-04 00:48:00,44.0,13.0,-100.00,East,96,1.0,10.0,28,0.00,,,0.00,0.000000,,2013-10-04 07:48:00,
2013-10-04 00:56:00,44.0,13.0,-100.00,East,96,1.0,10.0,28,0.00,,,0.00,0.000000,,2013-10-04 07:56:00,
2013-10-04 01:02:00,43.0,14.0,-100.00,SSE,164,4.0,14.0,30,0.00,,,-99.99,0.000000,,2013-10-04 08:02:00,
2013-10-04 01:28:00,43.0,14.0,-100.00,SSE,164,4.0,14.0,30,0.00,,,-99.99,0.000000,,2013-10-04 08:28:00,
2013-10-04 01:38:00,43.0,14.0,-100.00,SSE,164,4.0,14.0,30,0.00,,,-99.99,0.000000,,2013-10-04 08:38:00,
2013-10-04 01:48:00,43.0,14.0,-100.00,SSE,164,4.0,14.0,30,0.00,,,-99.99,0.000000,,2013-10-04 08:48:00,
2013-10-04 01:56:00,43.0,14.0,-100.00,SSE,164,4.0,14.0,30,0.00,,,-99.99,0.000000,,2013-10-04 08:56:00,
2013-10-04 02:02:00,39.0,15.0,-100.00,ESE,114,3.0,9.0,37,0.00,,,0.00,0.000000,,2013-10-04 09:02:00,
2013-10-04 02:50:00,39.0,15.0,-100.00,ESE,114,3.0,9.0,37,0.00,,,0.00,0.000000,,2013-10-04 09:50:00,
2013-10-04 02:59:00,39.0,15.0,-100.00,ESE,114,3.0,9.0,37,0.00,,,0.00,0.000000,,2013-10-04 09:59:00,
2013-10-04 03:02:00,43.0,14.0,-100.00,ESE,108,7.0,16.0,30,0.00,,,0.00,0.000000,,2013-10-04 10:02:00,
2013-10-04 03:51:00,43.0,14.0,-100.00,ESE,108,7.0,16.0,30,0.00,,,0.00,0.000000,,2013-10-04 10:51:00,
2013-10-04 03:59:00,43.0,14.0,-100.00,ESE,108,7.0,16.0,30,0.00,,,0.00,0.000000,,2013-10-04 10:59:00,
2013-10-04 04:02:00,42.0,13.0,-100.00,SE,134,3.0,21.0,30,0.00,,,0.00,0.000000,,2013-10-04 11:02:00,
2013-10-04 04:50:00,42.0,13.0,-100.00,SE,134,3.0,21.0,30,0.00,,,0.00,0.000000,,2013-10-04 11:50:00,
2013-10-04 04:58:00,42.0,13.0,-100.00,SE,134,3.0,21.0,30,0.00,,,0.00,0.000000,,2013-10-04 11:58:00,
2013-10-04 05:02:00,42.0,12.0,-100.00,SSE,156,2.0,10.0,29,0.00,,,0.00,0.000000,,2013-10-04 12:02:00,
2013-10-04 05:50:00,42.0,12.0,-100.00,SSE,156,2.0,10.0,29,0.00,,,0.00,0.000000,,2013-10-04 12:50:00,
2013-10-04 05:58:00,42.0,12.0,-100.00,SSE,156,2.0,10.0,29,0.00,,,0.00,0.000000,,2013-10-04 12:58:00,
2013-10-04 06:02:00,42.0,14.0,-100.00,South,176,3.0,24.0,32,0.00,,,0.00,0.000000,,2013-10-04 13:02:00,
2013-10-04 06:50:00,42.0,14.0,-100.00,South,176,3.0,24.0,32,0.00,,,0.00,0.000000,,2013-10-04 13:50:00,
2013-10-04 06:58:00,42.0,14.0,-100.00,South,176,3.0,24.0,32,0.00,,,0.00,0.000000,,2013-10-04 13:58:00,
2013-10-04 07:02:00,40.0,15.0,-100.00,North,2,1.0,13.0,36,0.00,,,0.00,0.000000,,2013-10-04 14:02:00,
2013-10-04 07:50:00,40.0,15.0,-100.00,North,2,1.0,13.0,36,0.00,,,0.00,0.000000,,2013-10-04 14:50:00,
2013-10-04 07:58:00,40.0,15.0,-100.00,North,2,1.0,13.0,36,0.00,,,0.00,0.000000,,2013-10-04 14:58:00,
2013-10-04 08:02:00,40.0,15.0,-100.00,NNW,339,2.0,5.0,35,0.00,,,0.00,16.000000,,2013-10-04 15:02:00,
2013-10-04 08:51:00,40.0,15.0,-100.00,NNW,339,2.0,5.0,35,0.00,,,0.00,16.000000,,2013-10-04 15:51:00,
2013-10-04 08:59:00,40.0,15.0,-100.00,NNW,339,2.0,5.0,35,0.00,,,0.00,16.000000,,2013-10-04 15:59:00,
2013-10-04 09:02:00,45.0,17.0,-100.00,West,270,2.0,7.0,32,0.00,,,0.00,158.000000,,2013-10-04 16:02:00,
2013-10-04 09:31:00,45.0,17.0,-100.00,West,270,2.0,7.0,32,0.00,,,0.00,158.000000,,2013-10-04 16:31:00,
2013-10-04 09:41:00,45.0,17.0,-100.00,West,270,2.0,7.0,32,0.00,,,0.00,158.000000,,2013-10-04 16:41:00,
2013-10-04 09:51:00,45.0,17.0,-100.00,West,270,2.0,7.0,32,0.00,,,0.00,158.000000,,2013-10-04 16:51:00,
2013-10-04 09:59:00,45.0,17.0,-100.00,West,270,2.0,7.0,32,0.00,,,0.00,158.000000,,2013-10-04 16:59:00,
2013-10-04 10:02:00,51.0,9.0,-100.00,NW,311,4.0,22.0,18,0.00,,,0.00,71.000000,,2013-10-04 17:02:00,
2013-10-04 11:00:00,51.0,9.0,-100.00,NW,311,4.0,22.0,18,0.00,,,0.00,71.000000,,2013-10-04 18:00:00,
2013-10-04 11:52:00,57.0,11.0,-100.00,SW,230,3.0,16.0,16,0.00,,,0.00,249.000000,,2013-10-04 18:52:00,
2013-10-04 12:01:00,57.0,11.0,-100.00,SW,230,3.0,16.0,16,0.00,,,0.00,249.000000,,2013-10-04 19:01:00,
2013-10-04 12:02:00,62.0,9.0,-100.00,South,184,3.0,14.0,12,0.00,,,0.00,740.000000,,2013-10-04 19:02:00,
2013-10-04 12:43:00,62.0,9.0,-100.00,South,184,3.0,14.0,12,0.00,,,0.00,740.000000,,2013-10-04 19:43:00,
2013-10-04 12:52:00,62.0,9.0,-100.00,South,184,3.0,14.0,12,0.00,,,0.00,740.000000,,2013-10-04 19:52:00,
2013-10-04 13:22:00,64.0,6.0,-100.00,SE,132,4.0,12.0,10,0.00,,,0.00,804.000000,,2013-10-04 20:22:00,
2013-10-04 13:32:00,64.0,6.0,-100.00,SE,132,4.0,12.0,10,0.00,,,0.00,804.000000,,2013-10-04 20:32:00,
2013-10-04 13:43:00,64.0,6.0,-100.00,SE,132,4.0,12.0,10,0.00,,,0.00,804.000000,,2013-10-04 20:43:00,
2013-10-04 13:53:00,64.0,6.0,-100.00,SE,132,4.0,12.0,10,0.00,,,0.00,804.000000,,2013-10-04 20:53:00,
2013-10-04 14:01:00,64.0,6.0,-100.00,SE,132,4.0,12.0,10,0.00,,,0.00,804.000000,,2013-10-04 21:01:00,
2013-10-04 14:02:00,64.0,4.0,-100.00,SE,133,6.0,24.0,9,0.00,,,0.00,803.000000,,2013-10-04 21:02:00,
2013-10-04 14:22:00,64.0,4.0,-100.00,SE,133,6.0,24.0,9,0.00,,,0.00,803.000000,,2013-10-04 21:22:00,
2013-10-04 14:33:00,64.0,4.0,-100.00,SE,133,6.0,24.0,9,0.00,,,0.00,803.000000,,2013-10-04 21:33:00,
2013-10-04 14:43:00,64.0,4.0,-100.00,SE,133,6.0,24.0,9,0.00,,,0.00,803.000000,,2013-10-04 21:43:00,
2013-10-04 14:54:00,64.0,4.0,-100.00,SE,133,6.0,24.0,9,0.00,,,0.00,803.000000,,2013-10-04 21:54:00,
2013-10-04 15:02:00,65.0,5.0,-100.00,SE,130,6.0,18.0,9,0.00,,,0.00,739.000000,,2013-10-04 22:02:00,
2013-10-04 15:43:00,65.0,5.0,-100.00,SE,130,6.0,18.0,9,0.00,,,0.00,739.000000,,2013-10-04 22:43:00,
2013-10-04 15:52:00,65.0,5.0,-100.00,SE,130,6.0,18.0,9,0.00,,,0.00,739.000000,,2013-10-04 22:52:00,
2013-10-04 16:02:00,65.0,5.0,-100.00,ESE,112,5.0,18.0,9,0.00,,,0.00,613.000000,,2013-10-04 23:02:00,
2013-10-04 16:42:00,65.0,5.0,-100.00,ESE,112,5.0,18.0,9,0.00,,,0.00,613.000000,,2013-10-04 23:42:00,
2013-10-04 16:53:00,65.0,5.0,-100.00,ESE,112,5.0,18.0,9,0.00,,,0.00,613.000000,,2013-10-04 23:53:00,
2013-10-04 19:02:00,53.0,7.0,-100.00,East,83,4.0,12.0,15,0.00,,,0.00,7.000000,,2013-10-05 02:02:00,
2013-10-04 19:42:00,53.0,7.0,-100.00,East,83,4.0,12.0,15,0.00,,,0.00,7.000000,,2013-10-05 02:42:00,
2013-10-04 19:52:00,53.0,7.0,-100.00,East,83,4.0,12.0,15,0.00,,,0.00,7.000000,,2013-10-05 02:52:00,
2013-10-04 20:02:00,48.0,9.0,-100.00,NNE,24,1.0,10.0,20,0.00,,,0.00,0.000000,,2013-10-05 03:02:00,
2013-10-04 20:45:00,48.0,9.0,-100.00,NNE,24,1.0,10.0,20,0.00,,,0.00,0.000000,,2013-10-05 03:45:00,
2013-10-04 20:55:00,48.0,9.0,-100.00,NNE,24,1.0,10.0,20,0.00,,,0.00,0.000000,,2013-10-05 03:55:00,
2013-10-04 21:02:00,47.0,7.0,-100.00,East,95,4.0,10.0,19,0.00,,,0.00,0.000000,,2013-10-05 04:02:00,
2013-10-04 21:44:00,47.0,7.0,-100.00,East,95,4.0,10.0,19,0.00,,,0.00,0.000000,,2013-10-05 04:44:00,
2013-10-04 21:53:00,47.0,7.0,-100.00,East,95,4.0,10.0,19,0.00,,,0.00,0.000000,,2013-10-05 04:53:00,
2013-10-04 22:02:00,42.0,8.0,-100.00,WSW,242,2.0,10.0,24,0.00,,,0.00,0.000000,,2013-10-05 05:02:00,
2013-10-04 22:43:00,42.0,8.0,-100.00,WSW,242,2.0,10.0,24,0.00,,,0.00,0.000000,,2013-10-05 05:43:00,
2013-10-04 22:52:00,42.0,8.0,-100.00,WSW,242,2.0,10.0,24,0.00,,,0.00,0.000000,,2013-10-05 05:52:00,
2013-10-04 23:02:00,48.0,5.0,-100.00,ESE,108,5.0,18.0,17,-99.99,,,0.00,0.000000,,2013-10-05 06:02:00,
2013-10-04 23:43:00,48.0,5.0,-100.00,ESE,108,5.0,18.0,17,-99.99,,,0.00,0.000000,,2013-10-05 06:43:00,
2013-10-04 23:52:00,48.0,5.0,-100.00,ESE,108,5.0,18.0,17,-99.99,,,0.00,0.000000,,2013-10-05 06:52:00,